sat.trackr.live / text

‹ back to catalog

STARLINK-1407

NORAD 45703 · 2020-035AY

PAYLOAD ACTIVE UNKNOWN

§ Identity

Operator
Country
US
Launch date
2020-06-04
Launch site
AFETR
Launch vehicle
Mass (kg)
RCS (m²)

Purposes: comms

External: N2YO · Heavens-Above · Gunter

§ Orbital elements

Epoch: 2026-05-24T16:26:34.211616Z

Period
91.62 min
Inclination
53.0278°
Eccentricity
0.0003974
Mean motion
15.71729975 rev/d
Perigee alt
351.3 km
Apogee alt
356.6 km
Semi-major
6,732.1 km
B*
4.4602e-4
RAAN
301.8327°
Arg perigee
0.2323°
Mean anomaly
359.8695°
Rev number
33,220

§ Raw data

STARLINK-14071 45703U 20035AY  26144.68511819  .00058638  00000+0  44602-3 0  99932 45703  53.0278 301.8327 0003974   0.2323 359.8695 15.71729975332201

JSON: /api/v1/satellites/45703 · /tle

For live sub-satellite position, see the globe view (requires WebGL).

§ Visibility from observer

Set your observer location to see the next 7 days of passes ≥ 10°. The values pass through the URL so the page stays shareable.

No JS? Fill the form by hand. The geolocation button needs JavaScript.